Regional Weather Roundup
Issued by NWS

Home | Current Version | Previous Version | Graphics & Text | Print | Product List | Glossary On
Versions: 1 2 3 4 5 6 7 8 9 10 11 12 13 14 15 16 17 18 19 20 21 22 23 24 25 26 27 28 29 30 31 32 33 34 35 36 37 38 39 40 41 42 43 44 45 46 47 48 49 50
000
ASUS44 KMEG 191600
RWRTN
TENNESSEE HOURLY STATE WEATHER ROUNDUP
NATIONAL WEATHER SERVICE MEMPHIS TN
1000 AM CST SUN NOV 19 2017

TNZ002-004-019-021-049-052-054-088>092-191700-
WEST TENNESSEE

CITY           SKY/WX    TMP DP  RH WIND       PRES   REMARKS
MEMPHIS INTL   SUNNY     47  28  47 NW13G20   30.25R
NWS MEMPHIS      N/A     46 N/A N/A MISG        N/A
JACKSON        MOSUNNY   45  31  58 NW12      30.23R
DYERSBURG      MOSUNNY   43  27  53 NW14      30.25R
$$

TNZ008-025-027-028-033-062-065-066-191700-
NORTH MIDDLE TENNESSEE

CITY           SKY/WX    TMP DP  RH WIND       PRES   REMARKS
NASHVILLE      MOSUNNY   43  24  47 NW13      30.16R
CLARKSVILLE    SUNNY     40  22  48 NW14G21   30.18R WCI  32
SMYRNA         MOSUNNY   42  28  57 NW13      30.16R
CROSSVILLE     CLOUDY    37  28  70 W12G20    30.08R WCI  29
$$

TNZ061-075-076-078-094-096-097-191700-
SOUTH MIDDLE TENNESSEE

CITY           SKY/WX    TMP DP  RH WIND       PRES   REMARKS
WINCHESTER     CLOUDY    41  30  65 N9        30.14R
$$

TNZ017-018-042-046-047-191700-
NORTHEAST TENNESSEE

CITY           SKY/WX    TMP DP  RH WIND       PRES   REMARKS
TRI CITIES     CLOUDY    40  32  73 W17       30.00R WCI  31
$$

TNZ012-013-036-069-073-074-191700-
CENTRAL EAST TENNESSEE

CITY           SKY/WX    TMP DP  RH WIND       PRES   REMARKS
KNOXVILLE      CLOUDY    44  37  76 W12       30.07R
OAK RIDGE      CLOUDY    44  32  62 NW6       30.10R
$$

TNZ083-085-099-191700-
SOUTHEAST TENNESSEE

CITY           SKY/WX    TMP DP  RH WIND       PRES   REMARKS
CHATTANOOGA    PTSUNNY   49  32  52 NW13      30.11R
$$

SKY/WX REPORTED AS FAIR MEANS FEW OR NO CLOUDS BELOW
12 THOUSAND FEET.





USA.gov is the U.S. government's official web portal to all federal, state and local government web resources and services.